Home   Weather   Liestal   Past weeks

Flag for Switzerland Past Weather in Liestal, Basel-Land, Switzerland — Yesterday and Last 2 Weeks

Now
34 °F

Sunny.


Feels Like: 27 °F
Forecast: 24 / 38 °F
Wind: 8 mph from South

Location: Bale-Mulhouse

Current Time: Dec 10, 2016 at 9:54:51 am

Latest Report: Dec 10, 2016 at 9:30 am


Visibility: 10 mi

Pressure: 30.39 "Hg

Humidity: 81%

Dew Point: 28 °F

Location of LiestalLocation

Past Weather in Liestal — Graph

°F

Liestal Temperature Yesterday

Maximum temperature yesterday: 46 °F (at 2:00 pm)
Minimum temperature yesterday: 28 °F (at 12:30 am)
Average temperature yesterday: 35 °F

High & Low Weather Summary for the Past Weeks

 TemperatureHumidityPressure
High50 °F (Nov 26, 1:00 pm)100% (Nov 25, 8:30 am)30.57 "Hg (Nov 25, 8:30 am)
Low21 °F (Nov 29, 4:00 am)42% (Nov 28, 2:30 pm)29.86 "Hg (Nov 25, 8:00 am)
Average34 °F88%30.31 "Hg
* Reported Nov 25 8:00 am — Dec 10 8:30 am, Liestal, Weather by CustomWeather, © 2016

Note: Actual official high and low records may vary slightly from our data, if they occured in-between our weather recording intervals... More about our weather records

Advertising

Liestal Weather History for the Previous 24 Hours

Scroll right to see more
 ConditionsComfort  
Time TempWeatherWind HumidityBarometerVisibility
8:30 am
Sat, Dec 10
30 °FPassing clouds.6 mph86%30.36 "HgN/A
8:00 am30 °FClear.8 mph93%30.36 "Hg10 mi
7:30 am30 °FClear.8 mph86%30.36 "Hg10 mi
7:00 am30 °FClear.7 mph93%30.36 "Hg10 mi
6:30 am32 °FClear.7 mph87%30.36 "Hg10 mi
6:00 am30 °FClear.7 mph93%30.36 "Hg10 mi
5:30 am32 °FPassing clouds.6 mph87%30.36 "HgN/A
5:00 am30 °FClear.6 mph93%30.36 "Hg10 mi
4:30 am30 °FClear.5 mph93%30.39 "Hg10 mi
4:00 am28 °FClear.6 mph86%30.39 "Hg10 mi
3:30 am32 °FClear.5 mph87%30.39 "Hg10 mi
3:00 am32 °FClear.6 mph80%30.39 "Hg10 mi
2:30 am34 °FClear.6 mph81%30.39 "Hg10 mi
2:00 am34 °FClear.7 mph87%30.39 "Hg10 mi
1:30 am34 °FClear.5 mph81%30.39 "Hg10 mi
1:00 am34 °FClear.6 mph81%30.39 "Hg10 mi
12:30 am34 °FClear.6 mph87%30.39 "Hg10 mi
12:00 am34 °FClear.6 mph87%30.42 "Hg10 mi
11:30 pm
Fri, Dec 9
34 °FClear.6 mph87%30.42 "Hg10 mi
11:00 pm34 °FPassing clouds.5 mph87%30.42 "HgN/A
10:30 pm34 °FPassing clouds.5 mph81%30.42 "HgN/A
10:00 pm36 °FClear.5 mph81%30.45 "Hg10 mi
9:30 pm36 °FPassing clouds.3 mph81%30.45 "HgN/A
9:00 pm37 °FClear.5 mph75%30.45 "Hg10 mi
8:30 pm37 °FClear.6 mph81%30.45 "Hg10 mi
8:00 pm37 °FClear.6 mph81%30.45 "Hg10 mi
7:30 pm36 °FClear.2 mph81%30.45 "Hg10 mi
7:00 pm37 °FPassing clouds.3 mph81%30.45 "HgN/A
6:30 pm37 °FClear.5 mph81%30.45 "Hg10 mi
6:00 pm39 °FClear.6 mph75%30.45 "Hg10 mi
5:30 pm39 °FClear.5 mph75%30.48 "Hg10 mi
5:00 pm41 °FClear.6 mph70%30.45 "Hg10 mi
4:30 pm43 °FSunny.5 mph66%30.48 "Hg10 mi
4:00 pm43 °FSunny.3 mph66%30.48 "Hg10 mi
3:30 pm45 °FSunny.6 mph61%30.48 "Hg10 mi
3:00 pm45 °FPassing clouds.3 mph61%30.48 "HgN/A
2:30 pm46 °FPassing clouds.6 mph57%30.48 "HgN/A
2:00 pm46 °FPassing clouds.6 mph57%30.48 "HgN/A
1:30 pm45 °FSunny.7 mph57%30.48 "Hg10 mi
1:00 pm43 °FPassing clouds.7 mph61%30.48 "HgN/A
12:30 pm41 °FPassing clouds.7 mph66%30.51 "HgN/A
12:00 pm41 °FPassing clouds.6 mph66%30.51 "HgN/A
11:30 am39 °FSunny.9 mph70%30.51 "Hg10 mi
11:00 am36 °FSunny.9 mph81%30.54 "Hg10 mi
10:30 am36 °FPassing clouds.7 mph81%30.54 "HgN/A
10:00 am34 °FSunny.7 mph87%30.54 "Hg10 mi
9:30 am32 °FSunny.6 mph87%30.51 "Hg10 mi
9:00 am30 °FClear.7 mph93%30.51 "Hg6 mi
Weather by CustomWeather, © 2016

See weather overviewHow to use our weather pages